TimeCST,TemperatureF,Dew PointF,Humidity,Sea Level PressureIn,VisibilityMPH,Wind Direction,Wind SpeedMPH,Gust SpeedMPH,PrecipitationIn,Events,Conditions,WindDirDegrees,DateUTC
12:53 AM,37.9,35.1,89,29.88,7.0,Variable,5.8,-,N/A,,Overcast,0,2012-12-03 06:53:00
1:53 AM,39.0,37.0,93,29.86,4.0,South,8.1,-,N/A,,Overcast,170,2012-12-03 07:53:00
2:53 AM,41.0,37.9,89,29.84,3.0,South,9.2,17.3,N/A,,Overcast,170,2012-12-03 08:53:00
3:53 AM,42.1,39.0,89,29.80,4.0,SSE,12.7,19.6,N/A,,Overcast,160,2012-12-03 09:53:00
4:53 AM,42.1,39.9,92,29.77,4.0,SSE,12.7,18.4,N/A,,Overcast,160,2012-12-03 10:53:00
5:53 AM,43.0,39.9,89,29.75,5.0,SSE,10.4,16.1,N/A,,Overcast,160,2012-12-03 11:53:00
6:41 AM,44.6,41.0,87,29.69,1.8,SSE,9.2,18.4,N/A,,Overcast,160,2012-12-03 12:41:00
6:53 AM,44.1,42.1,93,29.70,1.8,SSE,10.4,18.4,N/A,,Overcast,150,2012-12-03 12:53:00
7:02 AM,44.6,42.8,93,29.66,2.5,SE,9.2,-,N/A,,Overcast,140,2012-12-03 13:02:00
7:09 AM,44.6,42.8,93,29.65,4.0,SSE,10.4,16.1,N/A,,Overcast,150,2012-12-03 13:09:00
7:35 AM,44.6,42.8,93,29.65,2.0,SSE,12.7,21.9,N/A,,Overcast,150,2012-12-03 13:35:00
7:44 AM,44.6,42.8,93,29.65,1.8,South,9.2,16.1,N/A,,Overcast,170,2012-12-03 13:44:00
7:53 AM,45.0,43.0,93,29.68,1.2,SSE,8.1,17.3,N/A,,Overcast,160,2012-12-03 13:53:00
8:17 AM,46.4,42.8,87,29.63,2.0,SSE,13.8,17.3,N/A,,Overcast,160,2012-12-03 14:17:00
8:29 AM,46.4,44.6,93,29.62,1.5,SSE,12.7,18.4,N/A,,Overcast,160,2012-12-03 14:29:00
8:49 AM,46.4,44.6,93,29.61,2.0,South,13.8,23.0,N/A,,Overcast,170,2012-12-03 14:49:00
9:53 AM,46.9,46.0,97,29.62,1.5,SSE,11.5,-,N/A,,Overcast,160,2012-12-03 15:53:00
10:53 AM,48.9,46.9,93,29.60,1.5,South,10.4,19.6,0.00,Rain,Light Rain,170,2012-12-03 16:53:00
11:26 AM,50.0,48.2,94,29.55,2.0,South,10.4,17.3,0.00,,Overcast,170,2012-12-03 17:26:00
11:31 AM,50.0,48.2,94,29.55,3.0,South,9.2,-,0.00,,Overcast,170,2012-12-03 17:31:00
11:49 AM,50.0,48.2,94,29.53,1.8,SSE,10.4,-,0.00,Rain,Light Rain,160,2012-12-03 17:49:00
11:53 AM,50.0,48.0,93,29.55,1.5,SSE,9.2,-,0.00,Rain,Light Rain,150,2012-12-03 17:53:00
12:08 PM,51.8,48.2,88,29.52,2.5,South,10.4,-,0.00,,Overcast,170,2012-12-03 18:08:00
12:15 PM,51.8,48.2,88,29.52,4.0,South,10.4,-,0.00,,Overcast,170,2012-12-03 18:15:00
12:48 PM,53.6,51.8,94,29.51,8.0,South,10.4,16.1,0.00,,Overcast,190,2012-12-03 18:48:00
12:53 PM,54.0,51.1,90,29.53,7.0,South,8.1,16.1,0.00,,Overcast,190,2012-12-03 18:53:00
1:53 PM,54.0,51.1,90,29.52,6.0,SSW,8.1,-,0.00,,Overcast,200,2012-12-03 19:53:00
2:22 PM,53.6,51.8,94,29.51,2.0,SW,9.2,-,0.02,Rain,Light Rain,230,2012-12-03 20:22:00
2:27 PM,53.6,51.8,94,29.51,1.8,WSW,8.1,16.1,0.03,Rain,Rain,240,2012-12-03 20:27:00
2:34 PM,53.6,51.8,94,29.51,3.0,West,11.5,21.9,0.03,Rain,Light Rain,260,2012-12-03 20:34:00
2:53 PM,51.1,48.0,89,29.55,7.0,Variable,5.8,-,0.03,,Overcast,0,2012-12-03 20:53:00
3:51 PM,50.0,46.4,87,29.58,6.0,Variable,5.8,-,N/A,,Overcast,0,2012-12-03 21:51:00
3:53 PM,50.0,46.9,89,29.60,6.0,Variable,5.8,-,N/A,,Overcast,0,2012-12-03 21:53:00
4:18 PM,50.0,44.6,82,29.59,7.0,Variable,6.9,-,N/A,,Overcast,0,2012-12-03 22:18:00
4:51 PM,48.2,44.6,87,29.62,8.0,Variable,6.9,-,N/A,,Overcast,0,2012-12-03 22:51:00
4:53 PM,48.9,44.1,83,29.65,8.0,Variable,5.8,-,N/A,,Overcast,0,2012-12-03 22:53:00
5:02 PM,48.2,44.6,87,29.63,8.0,SW,5.8,-,N/A,,Overcast,230,2012-12-03 23:02:00
5:53 PM,46.9,42.1,83,29.68,10.0,Variable,6.9,-,N/A,,Partly Cloudy,0,2012-12-03 23:53:00
6:53 PM,44.1,37.0,76,29.74,10.0,West,6.9,17.3,N/A,,Clear,260,2012-12-04 00:53:00
7:53 PM,43.0,36.0,76,29.77,10.0,Variable,4.6,-,N/A,,Clear,0,2012-12-04 01:53:00
8:53 PM,42.1,35.1,76,29.77,10.0,SW,8.1,-,N/A,,Clear,230,2012-12-04 02:53:00
9:53 PM,42.1,32.0,67,29.80,10.0,WSW,6.9,-,N/A,,Clear,240,2012-12-04 03:53:00
10:53 PM,42.1,30.0,62,29.80,10.0,WSW,10.4,21.9,N/A,,Clear,250,2012-12-04 04:53:00
11:53 PM,41.0,30.0,65,29.81,10.0,WSW,8.1,19.6,N/A,,Clear,240,2012-12-04 05:53:00